• Join FlightAware (Why Join?)
  • Login
  • US Flag 
11:09AM EST


 

Airport Tracker/Info


-or-


 

Live Flight TrackerFlight Track Log ✈ SSX931 ✈ 18-Mar-2011 ✈ KDEN - KASE

Flight Track Log - Related Links

Times and Time Zones

All times are in EDT time to prevent confusion due to time zone crossing. See the SSX931 flight status page for this flight to view local times or setup timezone preferences in your user account.

Time Position Orientation Groundspeed Altitude Reporting Facility
EDT Latitude Longitude Course Direction KTS MPH feet Rate Location/Type
11:36PM 39.8065 -104.6522 250° West  Level FlightAware Approximate
11:39PM 39.7500 -104.8500 270° West 292 336 11,300  Level Denver TRACON
11:40PM 39.7500 -104.9833 270° West 303 349 11,900 375 Climbing Denver TRACON
11:41PM 39.7497 -105.0689 273° West 309 356 12,000 623 Climbing Denver Center
11:42PM 39.7533 -105.1769 256° West 309 356 13,000 1,350 Climbing Denver Center
11:43PM 39.7356 -105.2717 261° West 288 331 14,700 1,750 Climbing Denver Center
11:44PM 39.7258 -105.3556 264° West 256 295 16,500 1,150 Climbing Denver Center
11:45PM 39.7183 -105.4419 263° West 240 276 17,000 250 Climbing Denver Center
11:46PM 39.7089 -105.5394 263° West 256 295 17,000 200 Level Denver Center
11:47PM 39.6992 -105.6475 257° West 294 338 17,400 1,250 Climbing Denver Center
11:48PM 39.6831 -105.7394 254° West 279 321 19,500 1,300 Climbing Denver Center
11:49PM 39.6628 -105.8286 255° West 263 303 20,000 250 Climbing Denver Center
11:50PM 39.6425 -105.9286 256° West 269 310 20,000  Level Denver Center
11:51PM 39.6242 -106.0231 253° West 286 329 20,000  Level Denver Center
11:52PM 39.5994 -106.1311 259° West 305 351 20,000  Level Denver Center
11:53PM 39.5831 -106.2389 253° West 310 357 20,000  Level Denver Center
11:54PM 39.5581 -106.3467 255° West 315 362 20,000 -650 Level Denver Center
11:55PM 39.5353 -106.4597 251° West 321 369 18,700 -1,450 Descending Denver Center
11:56PM 39.5061 -106.5700 252° West 328 377 17,100 -1,350 Descending Denver Center
11:57PM 39.4808 -106.6722 254° West 317 365 16,000 -550 Descending Denver Center
11:58PM 39.4597 -106.7692 257° West 273 314 16,000 -450 Level Denver Center
11:59PM 39.4469 -106.8417 254° West 222 255 15,100 -1,050 Descending Denver Center
12:00AM 39.4322 -106.9086 215° Southwest 210 242 13,900 -1,250 Descending Denver Center
12:01AM 39.3944 -106.9433 171° South 183 211 12,600 -950 Descending Denver Center
12:02AM 39.3550 -106.9350 158° South 143 165 12,000 -1,100 Descending Denver Center
12:03AM 39.3197 -106.9161 158° South 136 157 10,400 -1,550 Descending Denver Center
12:04AM 39.2822 -106.8969 162° South 146 168 8,900 -900 Descending Denver Center
12:05AM 39.2489 -106.8833 162° South 146 168 8,600 -300 Descending Denver Center